Weather in Krasnozatonsky

Russia / Komi Republic     61°40′41″N   50°59′17″E
temp.,
°C
wind,
m/s
gust,
m/s
humid.,
%
clouds,
%
prec.,
mm/h
press.,
hPa
HPBL,
m
17 may, tue
tue1700:00+6nne399235 0.0 1000340
03:00+4nne399475 0.0 1001332
06:00+7nne477796 0.0 1002610
09:00+8nne4671100 0.0 1003921
12:00+8nne4669100 0.1 10041052
15:00+6nne4785100 0.1 1006800
18:00+5nne4985100 0.0 1007747
21:00+5nne4872100 0.1 1007777
18 may, wed
wed1800:00+3nne4869100 0.0 1008712
03:00+3nne3762100 0.0 1007852
06:00+4n4776100 0.1 1007675
09:00+6nne4553100 0.1 10071527
12:00+8n454492 0.0 10061754
15:00+8n454691 0.0 10051646
18:00+7nnw344898 0.0 10051434
21:00+3nw2268100 0.0 100568
19 may, thu
thu1900:00+2ne127491 0.0 100562
03:00+1nne2377100 0.0 100595
06:00+4nnw3564100 0.0 1005712
09:00+6nnw4551100 0.0 10051576
12:00+7n4550100 0.1 10061548
15:00+7nnw4550100 0.1 10061606
18:00+7n3658100 0.1 10071262
21:00+4nnw3873100 0.1 1007693
20 may, fri
fri2000:00+4nnw4877100 0.0 1008756
03:00+3nnw41084100 0.1 1008968
06:00+5n5116995 0.1 10091515
09:00+8n6945100 0.1 10092033
12:00+9nnw684796 0.1 10101845
15:00+8n474199 0.1 10101971
18:00+7nnw574895 0.0 10111252
21:00+3nnw496948 0.0 1012562
21 may, sat
sat2100:00+1nnw39837 0.0 1011356
03:00−1nnw387947 0.0 1011332
06:00+2n5856100 0.0 1011973
09:00+5n5642100 0.0 10101592
12:00+7n4637100 0.0 10091952
15:00+8nne4636100 0.0 10092048
18:00+7ne464465 0.0 10091577
21:00+1ene226699 0.0 101092